Regional Weather Roundup
Issued by NWS

Home | Current Version | Previous Version | Graphics & Text | Print | Product List | Glossary On
Versions: 1 2 3 4 5 6 7 8 9 10 11 12 13 14 15 16 17 18 19 20 21 22 23 24 25 26 27 28 29 30 31 32 33 34 35 36 37 38 39 40 41 42 43 44 45 46 47 48 49 50
000
ASUS45 KCYS 052010
RWRWY

WYOMING REGIONAL WEATHER ROUNDUP
NATIONAL WEATHER SERVICE CHEYENNE WY
100 PM MST THU MAR 05 2015

NOTE:  "FAIR" INDICATES FEW OR NO CLOUDS BELOW 12,000 FEET
WITH NO SIGNIFICANT WEATHER AND/OR OBSTRUCTIONS TO VISIBILITY.

WYZ001-052100-
YELLOWSTONE NATIONAL PARK

CITY           SKY/WX    TMP DP  RH WIND       PRES   REMARKS
LK YELLOWSTONE   N/A     30   7  37 NW5       30.28F WCI  25
W YELLOWSTONE  NOT AVBL

$$
WYZ002>013-054>058-071-098>099-052100-
NORTHERN WYOMING

CITY           SKY/WX    TMP DP  RH WIND       PRES   REMARKS
JACKSON        SUNNY     18   7  62 S5        30.35  WCI  11
CODY           FAIR      45  10  24 W17G25    30.13F
GREYBULL       FAIR      36   9  32 S10       30.21F WCI  28
WORLAND        FAIR      34  13  41 SE7       30.21F WCI  28
SHERIDAN       FAIR      42  16  34 W3        30.14F
BUFFALO        NOT AVBL
GILLETTE       FAIR      39  16  39 NW16      30.12  WCI  30
HULETT         FAIR      39  18  41 W12G18    30.10F WCI  32
NEWCASTLE      FAIR      39  10  30 NW14G22   30.14F WCI  31

$$
WYZ014>020-022>026-101>103-052100-
CENTRAL WYOMING

CITY           SKY/WX    TMP DP  RH WIND       PRES   REMARKS
BIG PINEY      FAIR      39   9  29 N16       30.27F WCI  30
PINEDALE       FAIR      32  12  43 W20       30.26F WCI  20
DUBOIS         FAIR      36  10  35 NW20G28   30.18F WCI  25
LANDER         FAIR      19  10  68 CALM      30.19F
RIVERTON       FAIR      15   7  70 E6        30.22F WCI   6
CASPER         FAIR      29  18  63 SW23G30   30.20  WCI  15
DOUGLAS        FAIR      33  19  56 NW17      30.19  WCI  22

$$
WYZ021-027>030-104>119-052100-
SOUTHERN WYOMING

CITY           SKY/WX    TMP DP  RH WIND       PRES   REMARKS
EVANSTON       FAIR      33  15  47 W18       30.36F WCI  22
FORT BRIDGER   FAIR      36  17  47 W17G26    30.37S WCI  25
ROCK SPRINGS   FAIR      32  18  56 W23       30.28F WCI  19
DIXON          FAIR      33  14  45 S13       30.36F WCI  24
RAWLINS        FAIR      28  15  58 W29G41    30.22F WCI  12
SARATOGA       FAIR      30  18  59 SW14      30.27F WCI  20
LARAMIE        FAIR      32  12  43 NW6       30.16S WCI  26
CHEYENNE       FAIR      38  14  37 W17       30.17  WCI  28
TORRINGTON     FAIR      43  14  31 NW12      30.19F
PINE BLUFFS    FAIR      41  14  33 NW17G23   30.19F

$$


USA.gov is the U.S. government's official web portal to all federal, state and local government web resources and services.